Wind_Speed
13 13 14 15 16 17 18 19 20 20 21 22 22 23 25 26 27 28 29 29 30 31 32 33 34 34 36 37 38 38 39 39 39 40 39 39 38 38
14 14 15 15 16 17 18 19 19 20 21 21 23 23 25 26 27 27 29 30 31 31 32 33 34 35 36 38 39 40 40 40 40 41 41 41 41 41
14 15 16 16 17 18 18 19 20 20 21 22 23 24 24 25 26 27 28 30 31 32 33 33 34 35 36 37 39 40 41 41 42 41 41 43 43 43
16 16 17 17 18 18 19 19 20 21 22 22 24 24 25 26 27 28 29 30 31 32 33 34 35 35 36 37 38 39 40 41 42 43 42 43 44 44
16 17 17 18 18 19 19 20 21 21 22 23 24 25 26 27 27 28 30 31 32 33 34 35 36 36 37 38 38 39 40 41 42 43 43 44 44 44
17 18 18 19 19 20 20 21 22 22 23 23 24 25 26 26 27 28 29 31 32 33 35 36 37 37 38 38 39 40 41 42 43 44 45 46 46 45
18 19 19 20 21 21 21 22 22 23 24 24 25 25 26 27 28 28 29 29 30 32 33 35 36 38 39 40 40 41 42 43 43 44 45 46 47 48
20 20 20 21 22 22 23 23 23 24 24 25 25 25 26 27 28 29 29 29 30 32 33 34 35 36 38 40 41 42 43 44 44 45 45 46 48 49
21 22 22 22 23 23 24 25 25 25 25 25 25 25 26 27 28 28 29 30 30 32 33 34 36 37 38 39 40 42 44 46 47 47 48 48 48 50
23 23 24 24 25 25 25 25 25 25 25 25 25 26 26 27 28 29 30 30 31 32 34 34 35 36 37 39 40 41 43 45 46 47 47 48 49 50
24 25 26 26 26 26 26 26 26 26 26 26 26 27 27 28 29 30 31 31 31 32 33 34 35 36 36 37 39 40 42 43 45 46 47 48 49 50
26 26 27 27 28 27 27 27 27 28 28 28 27 28 28 29 30 31 31 32 32 32 33 34 34 35 35 36 38 39 40 42 43 44 45 47 49 50
27 28 28 28 29 29 29 29 29 29 29 29 29 29 29 30 30 31 32 32 32 32 33 34 34 34 34 34 35 37 38 39 41 42 43 44 46 48
29 29 30 29 29 30 30 31 31 31 31 30 30 31 31 31 31 31 32 32 32 31 32 33 33 33 33 33 33 34 36 37 38 40 41 43 44 45
30 31 31 32 32 32 32 32 33 33 33 32 32 32 32 32 32 32 32 32 32 31 31 32 33 33 33 32 32 33 34 35 36 37 39 41 42 43
32 32 33 34 34 34 34 34 34 34 34 34 33 33 33 33 32 32 32 32 32 31 31 31 32 32 32 32 32 32 32 33 34 35 36 38 39 41
33 33 34 35 36 36 36 36 36 35 34 34 34 33 33 33 33 33 33 32 32 31 31 31 31 31 31 31 31 31 31 32 33 33 34 36 37 38
36 36 37 37 37 37 37 37 36 36 36 35 34 34 34 34 33 33 33 32 31 30 30 30 31 31 30 30 30 31 31 31 32 33 34 35 35 36
38 39 39 39 39 39 38 38 37 37 36 36 35 35 35 34 33 32 32 31 30 30 30 30 30 30 30 29 29 31 31 31 31 31 32 33 33 34
40 40 40 40 40 40 40 39 38 37 37 36 36 35 35 34 33 32 31 30 30 30 30 30 30 30 29 29 28 29 30 30 30 30 31 31 32 32
41 42 42 41 41 40 40 40 39 38 37 36 36 36 35 34 33 32 31 31 30 30 30 29 29 30 29 29 28 27 28 29 29 29 30 30 30 31
43 43 42 42 41 40 40 40 39 38 37 37 36 36 35 34 33 32 31 31 30 30 30 30 30 30 29 28 28 27 27 28 28 28 28 29 30 29
44 44 43 42 41 40 40 39 39 39 38 37 37 36 35 34 33 32 31 30 30 30 29 29 29 29 28 28 27 27 27 27 27 27 27 27 28 28
Wind_Direction
311 308 304 300 296 293 289 286 284 281 278 275 272 271 269 267 266 265 263 261 258 256 255 255 255 253 252 251 249 247 247 247 247 247 246 245 244 245
313 310 308 306 302 298 294 291 288 284 281 278 276 273 272 270 269 267 265 263 261 259 257 256 255 255 254 253 251 250 249 249 248 247 247 246 245 246
316 313 311 308 306 304 299 295 291 287 285 282 280 278 276 274 273 271 268 265 263 261 260 259 258 257 256 256 254 252 250 249 249 248 248 247 247 246
318 317 314 311 309 307 304 300 296 293 289 285 283 281 280 278 277 275 272 269 266 263 261 260 259 258 257 256 256 254 252 250 249 248 248 248 248 247
320 318 316 314 311 309 308 304 301 298 294 289 286 285 283 281 279 278 275 272 269 266 264 262 261 259 258 257 257 255 254 252 251 249 249 249 248 248
320 319 317 316 314 312 309 306 304 300 297 293 290 288 285 283 282 281 278 276 273 269 267 264 262 261 260 259 257 255 254 254 253 251 249 249 249 249
320 319 319 317 315 314 312 309 307 304 300 296 293 290 287 285 284 283 281 278 275 272 270 267 264 262 261 260 258 257 256 254 253 253 252 251 250 249
318 318 317 317 316 315 313 310 308 307 304 301 297 293 290 288 287 286 284 281 278 275 272 270 268 266 263 261 260 258 256 256 255 254 253 253 251 249
316 317 316 315 314 313 312 310 309 308 306 305 301 297 294 291 290 288 286 284 281 278 276 273 271 269 267 264 262 259 258 256 256 254 253 253 252 250
315 315 315 314 314 313 312 310 309 308 307 306 304 301 298 295 293 291 288 287 285 282 280 277 274 271 269 267 264 261 259 257 256 255 255 254 254 252
314 314 314 314 313 313 312 310 309 308 307 306 305 302 300 298 296 294 291 288 287 285 283 280 276 273 271 270 267 265 262 259 257 256 255 255 254 253
312 311 312 312 312 311 310 310 309 308 307 306 305 303 301 299 297 296 294 291 289 287 284 282 279 276 273 271 269 268 266 262 259 258 257 255 254 254
310 309 310 310 310 309 309 308 308 307 307 306 305 304 302 300 298 297 296 293 290 288 285 282 281 279 276 272 270 269 268 265 262 260 258 257 255 254
309 309 309 309 309 309 308 307 306 306 306 305 304 304 302 300 298 297 296 295 293 289 286 284 282 280 278 275 273 270 268 267 264 261 259 258 257 255
307 307 308 309 308 307 306 306 305 305 304 303 302 302 301 300 298 298 297 295 294 291 289 287 284 280 279 277 274 272 270 268 266 263 260 258 257 256
305 305 306 307 307 307 306 305 305 304 303 302 301 300 299 299 297 297 296 294 292 290 288 287 285 282 279 278 276 273 271 270 268 265 262 259 257 255
304 304 305 305 305 305 305 305 304 303 301 301 300 299 298 298 297 297 296 294 292 289 287 286 284 282 280 279 276 275 273 271 269 267 264 260 257 255
304 304 304 304 304 305 305 304 303 302 301 300 300 300 299 297 296 296 296 294 292 290 288 286 284 282 281 279 277 276 275 273 271 269 266 263 260 257
303 303 303 303 304 304 304 304 303 301 300 298 298 299 298 297 295 296 295 294 292 290 289 286 285 284 282 279 278 277 276 273 272 270 269 265 262 259
301 302 302 302 302 303 303 302 301 299 298 298 297 297 297 296 294 293 293 293 291 290 289 287 286 285 284 281 279 278 276 274 272 271 269 266 264 260
301 302 302 302 302 301 301 301 299 298 296 295 295 295 295 294 293 292 292 292 290 289 288 286 285 285 285 283 280 279 277 274 273 272 271 268 266 263
301 302 302 302 302 301 300 299 298 297 294 292 293 294 292 291 291 291 292 290 288 287 286 284 284 284 283 282 280 279 275 273 273 273 272 270 269 266
301 301 302 301 300 300 300 298 296 295 293 291 291 292 290 289 288 289 289 289 288 286 284 284 284 283 282 282 280 279 276 273 273 272 272 270 269 267
Height
5837 5836 5836 5835 5834 5833 5832 5832 5831 5831 5831 5831 5831 5832 5832 5833 5834 5835 5836 5837 5839 5840 5842 5844 5846 5848 5851 5853 5856 5859 5862 5865 5868 5871 5874 5877 5880 5884
5835 5834 5832 5831 5830 5829 5828 5827 5826 5825 5825 5825 5825 5825 5825 5826 5826 5827 5828 5829 5830 5831 5833 5835 5837 5839 5841 5844 5846 5849 5852 5855 5858 5861 5864 5867 5871 5874
5832 5831 5829 5827 5826 5824 5823 5822 5821 5820 5819 5819 5818 5818 5818 5818 5819 5819 5820 5820 5821 5822 5824 5826 5827 5829 5831 5833 5836 5838 5841 5844 5847 5851 5854 5857 5860 5864
5829 5827 5825 5823 5822 5820 5818 5817 5816 5814 5814 5813 5812 5812 5811 5811 5811 5811 5811 5812 5813 5813 5814 5816 5817 5819 5821 5823 5825 5828 5830 5833 5836 5840 5843 5846 5849 5853
5826 5824 5822 5820 5818 5816 5814 5812 5810 5809 5808 5807 5805 5805 5804 5803 5803 5802 5802 5803 5803 5804 5805 5806 5807 5809 5810 5812 5815 5817 5819 5822 5825 5828 5831 5834 5837 5841
5823 5821 5818 5816 5814 5811 5809 5807 5805 5803 5802 5800 5799 5797 5796 5795 5795 5794 5794 5793 5794 5794 5795 5796 5797 5798 5799 5802 5803 5805 5808 5810 5813 5815 5818 5822 5825 5829
5819 5817 5814 5812 5809 5807 5804 5802 5800 5797 5795 5793 5792 5790 5789 5787 5787 5786 5785 5784 5784 5784 5784 5785 5786 5787 5788 5789 5791 5793 5795 5797 5800 5803 5806 5809 5812 5816
5815 5813 5810 5807 5805 5802 5799 5796 5794 5791 5789 5786 5784 5783 5781 5779 5778 5777 5776 5775 5775 5774 5774 5775 5775 5776 5776 5778 5779 5780 5782 5785 5787 5790 5792 5795 5799 5802
5810 5808 5805 5802 5800 5797 5793 5791 5788 5785 5782 5780 5778 5775 5773 5771 5770 5768 5767 5766 5765 5764 5763 5764 5763 5764 5764 5765 5766 5767 5769 5771 5773 5776 5778 5781 5784 5788
5805 5802 5800 5797 5793 5791 5788 5785 5782 5779 5776 5773 5771 5768 5765 5763 5761 5760 5758 5757 5755 5753 5752 5752 5752 5751 5752 5752 5753 5754 5755 5757 5759 5761 5764 5767 5770 5773
5800 5797 5794 5791 5788 5784 5781 5778 5775 5772 5769 5766 5763 5760 5758 5755 5753 5751 5749 5747 5746 5743 5741 5740 5740 5739 5739 5740 5740 5740 5741 5743 5745 5747 5749 5752 5755 5758
5794 5791 5788 5785 5781 5778 5775 5772 5768 5765 5762 5759 5756 5753 5750 5747 5744 5742 5739 5737 5735 5733 5730 5728 5728 5727 5728 5728 5727 5727 5728 5729 5731 5733 5735 5737 5740 5743
5787 5784 5781 5778 5774 5771 5767 5764 5761 5757 5754 5751 5748 5745 5742 5739 5736 5732 5729 5727 5724 5722 5720 5718 5716 5715 5715 5716 5715 5715 5715 5716 5718 5719 5721 5723 5725 5728
5780 5777 5774 5770 5767 5763 5760 5756 5753 5749 5746 5743 5740 5736 5733 5730 5727 5724 5720 5717 5714 5712 5709 5707 5705 5704 5703 5703 5703 5703 5703 5704 5705 5707 5708 5710 5712 5714
5772 5769 5766 5762 5758 5755 5751 5747 5744 5740 5737 5734 5730 5727 5724 5720 5717 5714 5711 5707 5705 5702 5699 5697 5695 5693 5692 5692 5692 5692 5692 5692 5693 5694 5695 5697 5699 5701
5764 5761 5757 5753 5749 5746 5742 5738 5734 5731 5727 5724 5721 5717 5714 5711 5707 5704 5701 5698 5695 5693 5690 5687 5685 5683 5682 5682 5681 5681 5681 5681 5682 5682 5683 5685 5686 5688
5755 5752 5748 5744 5740 5736 5732 5729 5725 5721 5717 5714 5710 5707 5704 5701 5697 5694 5691 5688 5685 5683 5681 5678 5676 5674 5672 5672 5671 5671 5671 5671 5671 5671 5672 5673 5675 5676
5744 5741 5738 5734 5730 5726 5722 5718 5714 5710 5707 5703 5700 5696 5693 5690 5687 5684 5681 5678 5675 5673 5671 5668 5666 5665 5663 5663 5661 5661 5661 5661 5660 5660 5660 5662 5663 5665
5734 5730 5727 5723 5719 5715 5711 5707 5703 5699 5695 5692 5689 5686 5683 5679 5676 5674 5671 5668 5666 5663 5661 5659 5657 5655 5654 5654 5653 5651 5651 5650 5650 5650 5650 5651 5652 5653
5723 5719 5715 5711 5707 5703 5699 5695 5691 5687 5684 5680 5677 5674 5671 5668 5666 5663 5660 5658 5656 5654 5652 5650 5648 5646 5644 5644 5643 5642 5640 5640 5640 5640 5640 5640 5641 5642
5711 5707 5703 5699 5696 5691 5687 5683 5679 5675 5672 5669 5666 5663 5660 5658 5655 5653 5651 5648 5646 5644 5643 5641 5639 5637 5635 5634 5634 5633 5632 5630 5630 5630 5630 5630 5631 5631
5699 5695 5691 5687 5683 5679 5675 5671 5667 5663 5660 5657 5654 5651 5649 5647 5645 5642 5640 5638 5636 5635 5633 5631 5629 5628 5626 5625 5624 5624 5623 5622 5621 5621 5620 5621 5620 5622
5686 5682 5677 5674 5670 5666 5663 5659 5655 5651 5648 5645 5643 5640 5638 5636 5634 5632 5630 5628 5626 5625 5623 5622 5620 5619 5617 5616 5615 5614 5614 5613 5612 5612 5612 5611 5611 5612